Hourly Weather Roundup
Issued by NWS Central Illinois

Home | Current Version | Previous Version | Text Only | Print | Product List | Glossary On
Versions: 1 2 3 4 5 6 7 8 9 10 11 12 13 14 15 16 17 18 19 20 21 22 23 24 25 26 27 28 29 30 31 32 33 34 35 36 37 38 39 40 41 42 43 44 45 46 47 48 49 50
000
NZUS43 KILX 251110
HWRILX

AREA WEATHER ROUNDUP
NATIONAL WEATHER SERVICE, LINCOLN IL
600 AM CDT SAT APR 25 2015


CITY           SKY/WX    TMP DP  RH WIND       PRES   REMARKS
BLOOMINGTON    CLOUDY    49  46  89 E15       29.68F
CHAMPAIGN      CLOUDY    50  45  83 E14       29.68F
DECATUR        CLOUDY    51  45  79 E13       29.66F
EFFINGHAM      DRIZZLE   51  45  79 E10       29.67F
FLORA          CLOUDY    51  47  87 E6        29.66F
GALESBURG      DRIZZLE   46  43  90 NE12      29.66S
JACKSONVILLE   CLOUDY    54  48  82 SE10      29.60S
LACON          LGT RAIN  44  42  93 E14       29.69S
LAWRENCEVILLE  CLOUDY    52  47  83 E9        29.68F
LITCHFIELD     MOCLDY    50  47  87 E8        29.61S
$$


CITY           SKY/WX    TMP DP  RH WIND       PRES   REMARKS
LINCOLN        CLOUDY    52  45  78 E12       29.63F
MACOMB         RAIN      48  46  91 E10       29.65R
MATTOON        CLOUDY    52  44  74 SE9       29.66F
MT CARMEL AP   CLOUDY    55  46  71 E7        29.68F
OLNEY-NOBLE AP CLOUDY    50  46  87 E8        29.67F
PARIS          CLOUDY    49  46  87 E8        29.72F
PEORIA         CLOUDY    50  44  80 E10       29.66S
PONTIAC        RAIN      46  45  94 E14       29.72R
RANTOUL        CLOUDY    49  46  89 E8        29.71S
ROBINSON       LGT RAIN  52  47  84 E6        29.71S
SPRINGFIELD    CLOUDY    53  44  71 SE13      29.62F
TAYLORVILLE    CLOUDY    52  43  71 E8        29.63S
$$

...REGIONAL REPORTS...


CITY           SKY/WX    TMP DP  RH WIND       PRES   REMARKS
CHICAGO O`HARE CLOUDY    43  37  79 E12       29.80R
KANKAKEE       HVY RAIN  43  42  95 E13       29.76R
MOLINE         LGT RAIN  43  40  89 E17G28    29.69S FOG
MOUNT VERNON   CLOUDY    54  45  71 E5        29.65F
PITTSFIELD     LGT RAIN  52  48  86 NE3       29.60S
QUINCY         LGT RAIN  50  48  93 E14       29.55F FOG
ROCKFORD       CLOUDY    44  36  73 E13       29.79F
$$


CITY           SKY/WX    TMP DP  RH WIND       PRES   REMARKS
BURLINGTON     CLOUDY    47  45  93 NE14      29.59F
CEDAR RAPIDS   CLOUDY    42  40  92 E21       29.65F WCI  33
DES MOINES     LGT RAIN  47  43  86 E14G25    29.57F
KIRKSVILLE     LGT RAIN  52  52 100 CALM      29.53S
OTTUMWA        LGT RAIN  46  45  96 E18       29.57S FOG
ST LOUIS       LGT RAIN  56  52  86 SE13      29.58F
$$


CITY           SKY/WX    TMP DP  RH WIND       PRES   REMARKS
TERRE HAUTE    CLOUDY    50  46  86 E7        29.72F
EVANSVILLE     LGT RAIN  53  50  89 E6        29.68F FOG
INDIANAPOLIS   LGT RAIN  49  44  83 E12       29.75S
LAFAYETTE      CLOUDY    47  44  90 E10       29.74F
MADISON        CLOUDY    40  33  76 E12       29.82F WCI  33
MILWAUKEE      CLOUDY    40  35  83 E12       29.86F WCI  33
$$





USA.gov is the U.S. government's official web portal to all federal, state and local government web resources and services.